Location: Clermont
(50.2608°N, 4.3172°E)
Time: 10:15:22
(UTC+00:00)

Cosmos 1812 - Pass Details

Date: 13 August 2020
Orbit: 517 x 521 km, 82.5° (Epoch: 20 September)

Event Time Altitude Azimuth Distance (km) Brightness Sun altitude
Rises 19:41:10 0° 347° (NNW) 2,654 7.1 -6.0°
Reaches altitude 10° 19:43:19 10° 343° (NNW) 1,761 6.2 -6.3°
Maximum altitude 19:47:07 61° 264° (W) 596 3.3 -6.8°
Drops below altitude 10° 19:50:54 10° 184° (S) 1,745 5.1 -7.3°
Sets 19:53:02 0° 181° (S) 2,628 6.0 -7.6°
